Cloud_Cover
2 0 4 8 5 5 3 1 5 5 5 5 0 0 0 5 15 65 100 100 100 100 98 100 100 100 90 100 100 100 100 100 100 100 100 86 100 99 87 29 5 19 19
4 0 0 2 3 0 5 4 0 5 5 91 5 5 4 26 39 98 100 100 100 100 100 100 59 100 100 100 100 100 49 73 100 94 36 38 5 54 100 62 99 67 48
4 0 4 0 1 4 4 10 2 0 3 5 49 42 100 74 94 100 54 76 96 42 95 98 44 99 92 13 98 38 15 72 6 95 30 90 55 70 41 39 5 5 5
3 3 0 0 0 0 0 5 2 1 0 5 55 56 48 6 97 97 93 91 100 98 98 66 30 31 5 5 74 99 5 26 32 94 100 100 100 100 100 95 6 5 48
0 4 0 0 0 0 0 5 1 0 1 40 73 39 61 36 71 25 65 72 29 25 13 6 5 5 5 2 5 29 3 37 4 88 100 85 65 100 23 29 6 35 8
0 10 0 0 0 0 0 0 0 0 5 14 5 5 26 100 100 100 95 100 68 34 48 5 5 12 9 16 31 15 4 5 86 30 34 89 100 100 98 9 5 90 8
1 3 5 4 4 100 1 2 0 4 3 6 54 5 5 85 100 100 28 15 15 5 7 31 26 53 9 4 12 8 18 66 90 50 78 93 62 100 100 100 12 70 87
25 0 1 3 4 14 5 5 3 9 0 5 5 5 5 61 91 100 20 5 6 5 14 5 80 100 100 75 93 52 98 100 100 100 98 91 99 100 36 100 69 71 96
4 8 2 1 1 5 34 5 5 15 2 0 3 5 5 5 6 100 83 79 6 5 7 5 99 72 99 100 57 75 94 97 100 100 100 100 100 95 100 100 19 98 100
2 23 26 15 64 57 22 5 5 6 0 3 5 19 28 57 7 5 86 72 100 9 43 6 44 64 99 100 100 69 62 87 80 100 100 100 100 91 100 100 5 100 100
0 11 28 52 99 99 47 80 10 5 6 4 5 5 47 50 84 95 88 78 14 5 7 7 6 99 100 99 100 40 48 82 38 99 100 100 100 100 87 100 21 20 100
4 0 13 15 17 22 34 68 32 95 5 22 17 8 23 92 69 100 100 67 85 100 100 26 98 100 100 100 100 98 92 69 30 43 100 100 100 100 100 37 78 12 45
5 19 0 5 7 9 29 43 81 6 14 1 33 6 27 6 74 100 100 100 62 55 8 10 100 100 100 100 100 100 100 70 72 19 100 100 100 100 100 100 48 92 98
33 24 1 2 5 24 16 35 49 5 5 26 4 5 73 11 28 100 100 100 73 6 18 79 28 99 77 24 65 100 100 100 50 17 86 83 93 100 100 100 100 55 96
34 59 7 0 3 21 29 13 13 5 5 34 18 28 87 84 16 22 6 51 76 53 92 85 56 39 100 79 56 100 100 100 100 94 33 99 5 25 98 100 100 100 82
3 7 46 0 0 5 5 3 5 5 5 9 38 92 52 23 13 58 55 5 20 32 99 57 7 92 100 97 100 100 100 95 100 100 100 92 94 5 5 9 69 100 97
0 5 5 0 1 0 5 7 5 5 5 5 12 3 30 44 20 24 9 27 20 28 17 42 44 100 100 100 100 100 100 100 100 100 100 93 52 43 5 5 5 36 55
2 28 43 1 0 2 0 5 2 2 0 1 5 5 7 31 24 16 50 11 73 6 55 65 98 100 100 100 100 100 100 100 100 100 100 100 100 76 5 5 5 5 5
0 100 75 9 5 7 4 0 5 1 5 1 0 4 5 8 6 14 35 37 10 15 68 76 68 100 100 100 96 100 100 100 100 100 99 100 100 100 99 8 5 5 5
0 76 76 78 84 10 15 0 60 11 2 5 5 5 0 0 2 1 38 29 2 39 99 92 90 90 79 100 100 100 99 100 98 100 100 100 100 100 100 54 5 5 6
0 4 5 97 82 20 4 0 18 87 5 4 5 5 5 5 5 5 11 25 85 5 51 100 100 60 88 100 100 94 99 57 98 100 100 100 100 100 100 100 100 65 24
0 0 4 25 100 70 25 0 0 36 51 3 7 5 5 5 5 5 5 5 10 52 15 16 15 55 47 100 100 100 100 86 100 100 100 92 100 100 98 100 100 100 57
0 0 0 2 69 100 100 93 0 0 7 16 7 5 5 5 5 5 5 5 5 6 67 5 17 33 83 100 69 97 100 67 100 100 100 100 90 100 100 96 100 100 40
0 0 0 0 2 98 100 100 31 5 0 1 5 1 0 0 0 0 3 5 5 5 5 5 89 52 27 52 73 74 36 18 54 100 99 85 96 100 96 96 98 100 100
2 0 0 0 12 50 100 100 100 94 5 0 1 5 0 2 0 1 0 0 5 5 5 5 5 10 38 14 100 53 93 29 74 90 92 99 100 89 100 100 100 100 100
3 0 0 0 1 17 100 100 100 100 98 12 3 0 0 0 1 0 2 2 5 5 5 5 6 8 22 24 25 39 55 27 40 64 88 80 49 100 100 100 100 100 100